Retour au catalogue

STARLINK-34239

ActifCommunicationsVLEO
NORAD 64728·PAYLOAD·🇺🇸 United States

Lancé Jul 2, 2025 depuis Cape Canaveral Space Force Station

Loading…

Prochains Passages (prochaines 24 heures)

TLE

FraisSource: CelesTrak SupGP

Époque: Sep 15, 2026, 03:48 UTC

1 64728C 25144E   26258.15881944  .00060867  00000+0  17972-2 0  2588
2 64728  53.1599  18.5335 0001369  80.1187 324.6479 15.34379599    11

Suivez STARLINK-34239 en temps réel avec AllMySat

Download on the App Store